Weather History for MKJP - November, 2012

Change the Weather History Date:

Saturday, November 17, 2012

  Actual Average Record
Temperature  
Mean Temperature 82 °F -  
Max Temperature 90 °F 84 °F 91 °F (2000)
Min Temperature 74 °F 75 °F 71 °F (2010)
Cooling Degree Days 17    
Growing Degree Days 32 (Base 50)    
Moisture  
Dew Point 72 °F    
Average Humidity 72    
Maximum Humidity 84    
Minimum Humidity 55    
Precipitation  
Precipitation 0.00 in - - ()
Sea Level Pressure  
Sea Level Pressure 29.91 in    
Wind  
Wind Speed 8 mph ()    
Max Wind Speed 15 mph    
Max Gust Speed -    
Visibility 7.7 miles    
Events Thunderstorm    
Averages and records for this station are not official NWS values.
T = Trace of Precipitation, MM = Missing Value Source: Averaged Metar Reports

Daily Weather History Graph

Daily Weather History Graph

Search for Another Location

Airport or City:

Trip Planner

Search our weather history database for the weather conditions in past years. The results will help you decide how hot, cold, wet, or windy it might be!

Date:

Astronomy

Nov. 17, 2012 Rise Set
Actual Time 6:14 AM EST 5:30 PM EST
Civil Twilight 5:51 AM EST 5:53 PM EST
Nautical Twilight 5:24 AM EST 6:19 PM EST
Astronomical Twilight 4:58 AM EST 6:45 PM EST
Moon 9:56 AM EST (11/17) 9:34 PM EST (11/17)
Length of Visible Light 12h 01m
Length of Day
11h 15m
Waxing Crescent, 20% of the Moon is Illuminated
Nov 17
Waxing Crescent
Nov 20
First Quarter
Nov 28
Full
Dec 6
Last Quarter
Dec 13
New

Hourly Weather History & Observations

Time (EST) Temp. Heat Index Dew Point Humidity Pressure Visibility Wind Dir Wind Speed Gust Speed Precip Events Conditions
12:00 AM 78.8 °F - 69.8 °F 74% 29.86 in 6.2 mi NNW 12.7 mph - N/A   Partly Cloudy
1:00 AM 78 °F - 70 °F 71% 29.87 in 12 mi North 10.4 mph - -   Partly Cloudy
1:00 AM 78.8 °F - 69.8 °F 74% 29.86 in 6.2 mi North 10.4 mph - N/A   Partly Cloudy
2:00 AM 77.0 °F - 69.8 °F 78% 29.86 in 6.2 mi NNW 8.1 mph - N/A   Partly Cloudy
3:00 AM 78.8 °F - 68.0 °F 69% 29.86 in 6.2 mi ESE 2.3 mph - N/A   Partly Cloudy
4:00 AM 78.8 °F - 71.6 °F 78% 29.86 in 6.2 mi ENE 4.6 mph - N/A   Partly Cloudy
5:00 AM 78.8 °F - 69.8 °F 74% 29.89 in 6.2 mi North 11.5 mph - N/A   Partly Cloudy
6:00 AM 77.0 °F - 68.0 °F 74% 29.89 in 6.2 mi NNW 10.4 mph - N/A   Partly Cloudy
7:00 AM 78 °F - 70 °F 70% 29.92 in 25 mi North 11.5 mph - -   Scattered Clouds
7:00 AM 78.8 °F - 69.8 °F 74% 29.92 in 6.2 mi North 11.5 mph - N/A   Partly Cloudy
8:00 AM 78.8 °F - 71.6 °F 78% 29.92 in 6.2 mi North 11.5 mph - N/A   Partly Cloudy
9:00 AM 82.4 °F 88.2 °F 73.4 °F 74% 29.95 in 6.2 mi North 5.8 mph - N/A   Partly Cloudy
10:00 AM 85 °F - 71 °F 55% 29.97 in 19 mi NW 5.8 mph - -   Haze
10:00 AM 86.0 °F 91.8 °F 71.6 °F 62% 29.95 in 6.2 mi NW 5.8 mph - N/A   Partly Cloudy
11:00 AM 86.0 °F 93.4 °F 73.4 °F 66% 29.95 in 6.2 mi NW 8.1 mph - N/A   Partly Cloudy
12:00 PM 87.8 °F 95.6 °F 73.4 °F 62% 29.92 in 6.2 mi WNW 6.9 mph - N/A   Partly Cloudy
1:00 PM 89 °F - 76 °F 57% 29.90 in 19 mi SSW 10.4 mph - -   Haze
1:00 PM 89.6 °F 99.8 °F 75.2 °F 62% 29.89 in 6.2 mi SSW 10.4 mph - N/A   Partly Cloudy
2:00 PM 86.0 °F 95.1 °F 75.2 °F 70% 29.89 in 6.2 mi SSE 15.0 mph - N/A   Scattered Clouds
3:00 PM 87.8 °F 95.6 °F 73.4 °F 62% 29.89 in 6.2 mi SSE 10.4 mph - N/A   Scattered Clouds
3:11 PM 86.0 °F 93.4 °F 73.4 °F 66% 29.89 in 6.2 mi South 9.2 mph - N/A Thunderstorm Thunderstorm
4:00 PM 85 °F - 74 °F 63% 29.90 in 10 mi South 6.9 mph - - Thunderstorm Light Thunderstorm
4:00 PM 86.0 °F 95.1 °F 75.2 °F 70% 29.89 in 6.2 mi South 6.9 mph - N/A   Scattered Clouds
5:00 PM 84.2 °F 90.9 °F 73.4 °F 70% 29.89 in 6.2 mi NNW 6.9 mph - N/A   Scattered Clouds
5:30 PM 86.0 °F 95.1 °F 75.2 °F 70% 29.92 in 6.2 mi WNW 4.6 mph - N/A   Scattered Clouds
7:00 PM 81 °F - 75 °F 77% 29.93 in 12 mi NW 12.7 mph - - Thunderstorm Light Thunderstorm
7:00 PM 80.6 °F 86.2 °F 75.2 °F 84% 29.92 in 6.2 mi NW 12.7 mph - N/A   Partly Cloudy
8:00 PM 78.8 °F - 73.4 °F 83% 29.92 in 6.2 mi WNW 6.9 mph - N/A   Scattered Clouds
9:00 PM 78.8 °F - 73.4 °F 83% 29.95 in 6.2 mi NW 9.2 mph - N/A   Partly Cloudy
10:00 PM 78 °F - 73 °F 80% 29.95 in 12 mi NW 5.8 mph - -   Haze
10:00 PM 78.8 °F - 73.4 °F 83% 29.95 in 6.2 mi NW 5.8 mph - N/A   Partly Cloudy
11:00 PM 78.8 °F - 71.6 °F 78% 29.95 in 6.2 mi NW 3.5 mph - N/A   Partly Cloudy